Regional Weather Roundup
Issued by NWS

Home | Current Version | Previous Version | Graphics & Text | Print | Product List | Glossary On
Versions: 1 2 3 4 5 6 7 8 9 10 11 12 13 14 15 16 17 18 19 20 21 22 23 24 25 26 27 28 29 30 31 32 33 34 35 36 37 38 39 40 41 42 43 44 45 46 47 48 49 50
000
ASUS44 KMEG 231410
RWRTN
TENNESSEE HOURLY STATE WEATHER ROUNDUP
NATIONAL WEATHER SERVICE MEMPHIS TN
900 AM CDT SAT AUG 23 2014

TNZ002-004-019-021-049-052-054-088>092-231500-
WEST TENNESSEE

CITY           SKY/WX    TMP DP  RH WIND       PRES   REMARKS
MEMPHIS INTL   SUNNY     85  73  67 SW5       30.02S HX  91
NWS MEMPHIS      N/A     84 N/A N/A MISG        N/A
JACKSON        SUNNY     83  75  77 SW7       30.03S HX  90
DYERSBURG      SUNNY     81  70  69 CALM      30.02R
UNION CITY     SUNNY     81  75  83 SW7       29.99S
PARIS          SUNNY     79  73  83 SW5       30.02S
HUNTINGDON     SUNNY     81  75  81 SW5       30.01F
LEXINGTON      SUNNY     81  73  78 VRB5      30.02F
SAVANNAH       SUNNY     82  79  89 W3        30.04S HX  93
$$

TNZ008-025-027-028-033-062-065-066-231500-
NORTH MIDDLE TENNESSEE

CITY           SKY/WX    TMP DP  RH WIND       PRES   REMARKS
NASHVILLE      PTSUNNY   81  72  74 CALM      30.04S
DICKSON        PTSUNNY   75  73  94 SW3       30.04R
PORTLAND       SUNNY     81  72  74 CALM      30.02S
CLARKSVILLE    CLOUDY    78  74  87 SW3       30.01S
LEBANON        PTSUNNY   81  71  71 VRB3      30.02S
SMYRNA         PTSUNNY   81  74  79 CALM      30.04S
MURFREESBORO   PTSUNNY   79  73  81 CALM      30.03S
COOKEVILLE     MOSUNNY   77  73  88 CALM      30.05S
LIVINGSTON     PTSUNNY   77  72  84 SW5       30.06S
GALLATIN       PTSUNNY   81  75  81 S3        30.04R
CROSSVILLE     PTSUNNY   76  71  85 CALM      30.10S
$$

TNZ061-075-076-078-094-096-097-231500-
SOUTH MIDDLE TENNESSEE

CITY           SKY/WX    TMP DP  RH WIND       PRES   REMARKS
LEWISBURG      PTSUNNY   81  73  76 CALM      30.04S
FAYETTEVILLE   MOSUNNY   81  72  74 N5        30.06S
TULLAHOMA      SUNNY     81  73  78 NW8       30.07S
WINCHESTER     MOSUNNY   81  73  78 CALM      30.06S
MCMINNVILLE    SUNNY     81  81 100 SW3       30.05F HX  91
COLUMBIA       MOSUNNY   81  79  94 CALM      30.03S
SHELBYVILLE    SUNNY     79  75  89 NW6       30.06S
$$

TNZ017-018-042-046-047-231500-
NORTHEAST TENNESSEE

CITY           SKY/WX    TMP DP  RH WIND       PRES   REMARKS
TRI CITIES     PTSUNNY   74  68  81 CALM      30.06S
ELIZABETHTON   MOSUNNY   73  70  88 CALM      30.06F
$$

TNZ012-013-036-069-073-074-231500-
CENTRAL EAST TENNESSEE

CITY           SKY/WX    TMP DP  RH WIND       PRES   REMARKS
KNOXVILLE      MOSUNNY   80  73  79 SW5       30.03S
OAK RIDGE      MOSUNNY   82  73  74 VRB3      30.04S
GATLINBURG     SUNNY     81  72  74 NW3       30.03S
MORRISTOWN     SUNNY     81  73  78 CALM      30.05F
$$

TNZ083-085-099-231500-
SOUTHEAST TENNESSEE

CITY           SKY/WX    TMP DP  RH WIND       PRES   REMARKS
CHATTANOOGA    PTSUNNY   83  73  72 CALM      30.03F
$$

SKY/WX REPORTED AS FAIR MEANS FEW OR NO CLOUDS BELOW
12 THOUSAND FEET.




USA.gov is the U.S. government's official web portal to all federal, state and local government web resources and services.